[[{"header":{"parameterUnit":"m.s-1","parameterCategory":1,"la1":30.2991,"la2":30.254,"lo1":-89.0895,"lo2":-89.0444,"dy":0.0017,"dx":0.0017,"nx":28,"ny":28,"refTime":"2025-08-19T21:00:00:Z","depth":0,"parameterNumber":2,"parameterNumberName":"U-component_of_WINDS"},"data":[0,0,0,0,0,0,0,0,0,0,0,0,0,0,0,0,0,0,0,0,0,0,0,0,0,0,0,0,0,0,0,0,0,0,0,0,0,0,0,0,0,0,0,0,0,0,0,0,0,0,0,0,0,0,0,0,0,0,-0.3966,-0.3966,0,-0.394,-0.3939,-0.3939,-0.3916,-0.3916,-0.3915,-0.3915,-0.3889,-0.3888,-0.3888,0,0,0,0,0,0,0,0,0,0,0,0,0,-0.3997,-0.3996,-0.3966,-0.3966,-0.3965,-0.394,-0.3939,-0.3939,-0.3916,-0.3916,-0.3915,-0.3915,-0.3889,-0.3888,-0.3888,0,0,0,0,0,0,0,0,0,0,0,0,0,-0.3978,-0.3996,-0.3966,-0.3951,-0.3949,-0.394,-0.3939,-0.3939,-0.3916,-0.3916,-0.3915,-0.3915,-0.3889,-0.3888,-0.3888,-0.3891,0,0,-0.3885,-0.3885,0,0,0,0,0,0,0,0,-0.3979,-0.3977,-0.3953,-0.3952,-0.395,-0.3931,-0.394,-0.3923,-0.3916,-0.3929,-0.3915,-0.3915,-0.3903,-0.3901,-0.3897,-0.389,-0.3889,-0.3885,-0.3885,-0.3885,-0.3884,0,0,0,0,0,0,0,-0.3981,-0.3978,-0.3955,-0.3953,-0.3951,-0.3945,-0.3942,-0.3937,-0.3918,-0.3927,-0.3926,-0.3923,-0.3902,-0.3898,-0.3896,-0.3889,-0.3885,-0.3885,-0.3884,-0.3884,-0.3884,-0.3885,0,0,0,0,0,0,-0.3984,-0.3979,-0.3956,-0.3955,-0.3964,-0.3945,-0.3942,-0.3937,-0.3918,-0.3915,-0.3923,-0.3922,-0.3899,-0.3897,-0.3895,-0.3899,-0.3885,-0.3884,-0.3884,-0.3884,-0.3884,-0.3885,0,0,0,0,0,0,-0.3985,-0.3982,-0.3957,-0.3967,-0.3963,-0.3945,-0.394,-0.3937,-0.3933,-0.3915,-0.3912,-0.3922,-0.3899,-0.3896,-0.3893,-0.3898,-0.3884,-0.3883,-0.3883,-0.3884,-0.3885,-0.3906,0,0,0,0,0,0,-0.3986,-0.3983,-0.3984,-0.3967,-0.3963,-0.3955,-0.394,-0.3937,-0.3932,-0.393,-0.3913,-0.391,-0.3898,-0.3894,-0.3892,-0.3897,-0.3883,-0.3883,-0.3884,-0.3884,-0.3905,-0.3908,-0.391,0,0,0,0,0,-0.3987,-0.3991,-0.3984,-0.3981,-0.3963,-0.3955,-0.3953,-0.3939,-0.3932,-0.3933,-0.3922,-0.3911,-0.3897,-0.3894,-0.3891,-0.3896,-0.3883,-0.3883,-0.3884,-0.3904,-0.3907,-0.391,0,0,0,0,0,0,-0.4009,-0.3988,-0.398,-0.3979,-0.3969,-0.3952,-0.3952,-0.3942,-0.3935,-0.3933,-0.3916,-0.3912,-0.3911,-0.3903,-0.3899,-0.3899,-0.3889,-0.3889,-0.3904,-0.3907,-0.3909,-0.3911,-0.3882,0,0,0,0,0,-0.4014,-0.4009,-0.3991,-0.3991,-0.3987,-0.3971,-0.3966,-0.3956,-0.3946,-0.3941,-0.393,-0.392,-0.3914,-0.391,-0.3903,-0.3904,-0.39,-0.3906,-0.3908,-0.391,-0.3911,-0.3911,-0.3914,-0.3888,-0.3888,-0.3888,0,0,-0.4023,-0.4011,-0.4009,-0.3995,-0.3986,-0.3982,-0.3967,-0.3963,-0.396,-0.3941,-0.3937,-0.3928,-0.3916,-0.3915,-0.3914,-0.3908,-0.3917,-0.3911,-0.3913,-0.3913,-0.3913,-0.3915,-0.3917,-0.3889,-0.3888,-0.3888,0,0,-0.4038,-0.4028,-0.4028,-0.402,-0.4007,-0.3996,-0.3996,-0.398,-0.3974,-0.3969,-0.3955,-0.3951,-0.394,-0.3933,-0.3927,-0.394,-0.393,-0.3938,-0.3951,-0.3951,-0.3954,-0.3955,-0.396,-0.3962,-0.3939,-0.3939,-0.3939,0,-0.4052,-0.4044,-0.4029,-0.4026,-0.402,-0.4003,-0.4003,-0.3995,-0.3981,-0.3978,-0.3972,-0.3958,-0.3949,-0.3946,-0.3949,-0.3945,-0.3945,-0.394,-0.3954,-0.3956,-0.3957,-0.3962,-0.3964,-0.394,-0.394,-0.394,-0.394,0,-0.4062,-0.4057,-0.4058,-0.4045,-0.4039,-0.4038,-0.4022,-0.4019,-0.4009,-0.4,-0.3996,-0.3984,-0.3975,-0.3973,-0.3964,-0.3969,-0.3966,-0.3958,-0.3947,-0.3961,-0.3966,-0.3967,-0.3942,-0.3942,-0.3941,-0.3941,0,0,-0.409,-0.4068,-0.4069,-0.4063,-0.4048,-0.4044,-0.4042,-0.4033,-0.403,-0.4021,-0.4019,-0.401,-0.4002,-0.3996,-0.3986,-0.3987,-0.3998,-0.3978,-0.3977,-0.3982,-0.4004,-0.4011,-0.4014,-0.3991,-0.3992,-0.3992,-0.4005,0,-0.4103,-0.4097,-0.4084,-0.4083,-0.4079,-0.4063,-0.4061,-0.4052,-0.4042,-0.4038,-0.4027,-0.4022,-0.4011,-0.4008,-0.4008,-0.3997,-0.4003,-0.3996,-0.399,-0.399,-0.3994,-0.4016,-0.4023,-0.4036,-0.4007,-0.4007,-0.4007,0,-0.4117,-0.4109,-0.4108,-0.4093,-0.4091,-0.409,-0.4081,-0.4076,-0.4065,-0.4059,-0.4052,-0.4041,-0.4038,-0.4028,-0.4024,-0.402,-0.4017,-0.4011,-0.4011,-0.401,-0.4,-0.4016,-0.404,-0.4043,-0.401,-0.401,-0.4009,0,-0.4138,-0.4127,-0.4125,-0.412,-0.4103,-0.4103,-0.4096,-0.4085,-0.408,-0.4073,-0.407,-0.4062,-0.4057,-0.4052,-0.4038,-0.4032,-0.4036,-0.4025,-0.4031,-0.4031,-0.4033,-0.4033,-0.4057,-0.403,-0.403,-0.403,-0.403,0,-0.4154,-0.4154,-0.4134,-0.4133,-0.4133,-0.4118,-0.4118,-0.4109,-0.41,-0.4097,-0.4082,-0.408,-0.4063,-0.4059,-0.4048,-0.4047,-0.4045,-0.404,-0.4037,-0.4042,-0.4042,-0.4039,-0.4038,-0.4031,-0.403,-0.403,-0.403,0,-0.4178,-0.4165,-0.4161,-0.4146,-0.4142,-0.4143,-0.4129,-0.4128,-0.4118,-0.4115,-0.4113,-0.4097,-0.4092,-0.4078,-0.4069,-0.4062,-0.4064,-0.4058,-0.4067,-0.4066,-0.4073,-0.4073,-0.4097,-0.4099,-0.407,-0.407,-0.407,0,-0.4189,-0.4189,-0.4173,-0.4171,-0.4164,-0.416,-0.4155,-0.414,-0.4136,-0.4125,-0.4125,-0.4118,-0.4112,-0.4104,-0.4092,-0.4085,-0.4079,-0.4088,-0.4078,-0.4083,-0.408,-0.4081,-0.4081,-0.4091,-0.4091,-0.4091,-0.4092,0,-0.4211,-0.4205,-0.4199,-0.4191,-0.4186,-0.4179,-0.4171,-0.417,-0.4153,-0.415,-0.4144,-0.4139,-0.413,-0.4124,-0.4115,-0.4108,-0.4097,-0.4095,-0.4096,-0.4101,-0.4106,-0.4104,-0.4074,-0.4095,-0.4094,-0.4094,-0.4094,-0.4094,-0.4229,-0.4228,-0.4218,-0.4212,-0.4204,-0.4198,-0.4196,-0.4186,-0.4181,-0.4172,-0.4164,-0.4159,-0.4149,-0.4136,-0.413,-0.4126,-0.412,-0.4122,-0.4122,-0.4123,-0.4125,-0.4106,-0.4124,-0.4124,-0.4124,-0.4124,-0.4124,0,-0.4251,-0.4243,-0.4238,-0.4228,-0.4223,-0.4214,-0.4205,-0.4202,-0.4198,-0.4189,-0.4184,-0.4177,-0.4171,-0.4159,-0.4152,-0.4152,-0.4147,-0.415,-0.415,-0.4149,-0.413,-0.413,-0.4154,-0.4154,-0.4154,-0.4154,-0.4154,-0.4154,-0.4261,-0.426,-0.4252,-0.4247,-0.4239,-0.4235,-0.4231,-0.4224,-0.4218,-0.4211,-0.4206,-0.4198,-0.4189,-0.4181,-0.4175,-0.4172,-0.417,-0.4175,-0.417,-0.4153,-0.415,-0.4147,-0.4147,-0.4175,-0.4175,-0.4189,-0.419,-0.419]},{"header":{"parameterUnit":"m.s-1","parameterCategory":1,"la1":30.2991,"la2":30.254,"lo1":-89.0895,"lo2":-89.0444,"dy":0.0017,"dx":0.0017,"nx":28,"ny":28,"refTime":"2025-08-19T21:00:00:Z","depth":0,"parameterNumber":3,"parameterNumberName":"V-component_of_WINDS"},"data":[0,0,0,0,0,0,0,0,0,0,0,0,0,0,0,0,0,0,0,0,0,0,0,0,0,0,0,0,0,0,0,0,0,0,0,0,0,0,0,0,0,0,0,0,0,0,0,0,0,0,0,0,0,0,0,0,0,0,1.8805,1.8804,0,1.8745,1.8744,1.8744,1.8682,1.8681,1.868,1.8679,1.8617,1.8616,1.8616,0,0,0,0,0,0,0,0,0,0,0,0,0,1.8864,1.8863,1.8805,1.8804,1.8803,1.8745,1.8744,1.8743,1.8682,1.8681,1.868,1.8679,1.8618,1.8617,1.8616,0,0,0,0,0,0,0,0,0,0,0,0,0,1.8825,1.8863,1.8805,1.8766,1.8761,1.8745,1.8744,1.8743,1.8682,1.8681,1.868,1.8678,1.8618,1.8617,1.8615,1.8633,0,0,1.8611,1.8611,0,0,0,0,0,0,0,0,1.8827,1.8823,1.8772,1.8768,1.8764,1.8719,1.8742,1.8706,1.8682,1.8712,1.8679,1.8678,1.8652,1.8648,1.864,1.863,1.8627,1.8611,1.8611,1.861,1.861,0,0,0,0,0,0,0,1.883,1.8825,1.8781,1.8771,1.8766,1.875,1.8743,1.8735,1.869,1.871,1.8705,1.8699,1.865,1.8641,1.8638,1.8626,1.8611,1.861,1.8609,1.8609,1.8625,1.8626,0,0,0,0,0,0,1.8839,1.8827,1.8783,1.8779,1.8793,1.875,1.8742,1.8735,1.869,1.8682,1.87,1.8696,1.8644,1.8639,1.8635,1.8651,1.861,1.8609,1.8608,1.8624,1.8625,1.8627,0,0,0,0,0,0,1.884,1.8835,1.8785,1.8802,1.8794,1.8751,1.8743,1.8734,1.8726,1.8683,1.8674,1.8699,1.8643,1.8637,1.8633,1.8648,1.8608,1.8607,1.8622,1.8624,1.8626,1.8683,0,0,0,0,0,0,1.8842,1.8836,1.8843,1.8803,1.8794,1.8785,1.8744,1.8734,1.8724,1.8718,1.868,1.8672,1.8641,1.8636,1.8632,1.8645,1.8606,1.8621,1.8623,1.8625,1.868,1.8687,1.8692,0,0,0,0,0,1.8844,1.8862,1.8844,1.8838,1.8801,1.8786,1.8781,1.8745,1.8725,1.8731,1.8703,1.8674,1.8647,1.8636,1.8631,1.8644,1.862,1.8623,1.8625,1.8677,1.8685,1.8692,0,0,0,0,0,0,1.8905,1.8856,1.8835,1.884,1.8818,1.8776,1.8782,1.8755,1.8738,1.8734,1.869,1.8681,1.8682,1.8663,1.8651,1.8657,1.8629,1.8631,1.867,1.8677,1.8684,1.8688,1.8605,0,0,0,0,0,1.8919,1.8911,1.8868,1.8876,1.8866,1.8826,1.8818,1.8792,1.8768,1.8758,1.873,1.8706,1.8692,1.8684,1.8669,1.8677,1.8666,1.8683,1.869,1.8695,1.8697,1.8697,1.8704,1.8636,1.8636,1.8636,0,0,1.8947,1.8919,1.8917,1.8888,1.8867,1.8859,1.8819,1.8813,1.8806,1.8757,1.8751,1.873,1.87,1.8702,1.8701,1.8686,1.8714,1.8699,1.8704,1.8702,1.8701,1.8707,1.8713,1.8637,1.8637,1.8637,0,0,1.8994,1.8973,1.8977,1.8957,1.8927,1.89,1.8901,1.8863,1.8847,1.884,1.8803,1.8794,1.8771,1.8751,1.8738,1.8777,1.8748,1.8773,1.8806,1.8807,1.8813,1.8817,1.8829,1.8834,1.8776,1.8776,1.8776,0,1.9033,1.902,1.8982,1.8977,1.8965,1.892,1.8923,1.8906,1.8872,1.8864,1.8847,1.8817,1.8794,1.8789,1.8799,1.879,1.8789,1.8777,1.8815,1.8819,1.8823,1.8833,1.8838,1.8779,1.8778,1.8778,1.8778,0,1.9069,1.906,1.9066,1.9035,1.9023,1.9022,1.8983,1.8976,1.8951,1.8925,1.8918,1.889,1.8867,1.8864,1.884,1.8855,1.8846,1.8824,1.8794,1.8833,1.8842,1.8846,1.8783,1.8782,1.8781,1.878,0,0,1.9152,1.9098,1.9101,1.9085,1.9048,1.904,1.9037,1.9015,1.9009,1.8987,1.8982,1.8963,1.8941,1.8926,1.8899,1.89,1.893,1.8877,1.8875,1.8886,1.8943,1.8959,1.8965,1.8912,1.8912,1.8913,1.8944,0,1.9191,1.9182,1.9147,1.9149,1.9139,1.9096,1.9093,1.9069,1.9045,1.9033,1.9006,1.8993,1.8966,1.8956,1.8956,1.8927,1.8941,1.8924,1.8905,1.8904,1.8912,1.897,1.8987,1.9019,1.8948,1.8949,1.8949,0,1.9236,1.9216,1.9217,1.9178,1.9173,1.9171,1.9146,1.9136,1.9108,1.909,1.9073,1.9043,1.9035,1.9009,1.8997,1.8987,1.8977,1.8961,1.8962,1.8957,1.8928,1.8965,1.9028,1.9032,1.8955,1.8954,1.8954,0,1.9294,1.9268,1.9264,1.9252,1.9208,1.9207,1.9188,1.9159,1.9147,1.9126,1.9118,1.9097,1.9085,1.9068,1.9032,1.9017,1.9024,1.8995,1.9007,1.9008,1.9009,1.901,1.907,1.9006,1.9006,1.9006,1.9006,0,1.934,1.9342,1.9289,1.9287,1.9287,1.9246,1.9247,1.9224,1.9198,1.919,1.9152,1.9144,1.9098,1.9085,1.9057,1.905,1.9046,1.903,1.9022,1.9032,1.9034,1.9024,1.902,1.9007,1.9007,1.9007,1.9007,0,1.9405,1.937,1.9363,1.9321,1.9311,1.9312,1.9276,1.9271,1.9245,1.9234,1.923,1.9188,1.917,1.9133,1.9106,1.9087,1.9086,1.9074,1.9096,1.9091,1.9104,1.9103,1.9159,1.9163,1.9099,1.91,1.9101,0,1.9436,1.9436,1.9394,1.9386,1.9369,1.9356,1.9344,1.9304,1.9292,1.9259,1.9258,1.9238,1.9219,1.9193,1.916,1.9138,1.9123,1.9145,1.912,1.9129,1.9121,1.9121,1.912,1.915,1.9151,1.9151,1.9152,0,1.9494,1.9477,1.9461,1.9439,1.9425,1.9405,1.9384,1.9379,1.9334,1.9323,1.9304,1.929,1.9262,1.9241,1.9214,1.9194,1.9165,1.916,1.9161,1.9171,1.9183,1.9175,1.9109,1.9159,1.9158,1.9158,1.9157,1.9157,1.9541,1.9538,1.9508,1.9491,1.9471,1.9451,1.9444,1.9417,1.9401,1.9375,1.9352,1.9336,1.9305,1.9266,1.9248,1.9233,1.9219,1.9222,1.9222,1.9223,1.9226,1.9187,1.9228,1.9228,1.9228,1.9228,1.9228,0,1.9596,1.9574,1.9559,1.953,1.9516,1.9491,1.9465,1.9455,1.9441,1.9416,1.9398,1.9376,1.9356,1.9321,1.9297,1.9292,1.9278,1.9287,1.9286,1.9281,1.9241,1.9241,1.9298,1.9298,1.9298,1.9298,1.9298,1.9298,1.9623,1.9616,1.9595,1.9577,1.9555,1.9538,1.9526,1.9507,1.9486,1.9463,1.9446,1.9424,1.9394,1.9367,1.9347,1.9337,1.9329,1.9342,1.9328,1.9291,1.9284,1.9278,1.9278,1.9341,1.9341,1.9368,1.9369,1.9369]}]]